When you browse on this site, cookies collect data to enhance your experience and personalize the content and advertising you see.
Visit our Privacy Policy to learn more. By continuing to use the site, you agree to this use of cookies and data.
  • In Hungary
  • List of Countries
  • For 7 days
  • Water Temperature
  • Satellite Maps
  • Weather Map
  • News
  • Weather Widgets
  • user-avatar
    Login

    Hourly Weather Sen-Lui

    Today, 13 December, Thursday

    Time Temperature Precipitation Wind Pressure Humidity
    00:00 +20°C° 0 mm 5 mps 739 mmHg 16%
    01:00 +19°C° 0 mm 5 mps 739 mmHg 17%
    02:00 +19°C° 0 mm 5 mps 739 mmHg 18%
    03:00 +19°C° 0 mm 5 mps 739 mmHg 19%
    04:00 +17°C° 0 mm 5 mps 739 mmHg 19%
    05:00 +17°C° 0 mm 5 mps 739 mmHg 19%
    06:00 +17°C° 0 mm 5 mps 739 mmHg 20%
    07:00 +17°C° 0 mm 5 mps 739 mmHg 20%
    08:00 +20°C° 0 mm 6 mps 740 mmHg 18%
    09:00 +22°C° 0 mm 7 mps 740 mmHg 16%
    10:00 +24°C° 0 mm 7 mps 740 mmHg 13%
    11:00 +27°C° 0 mm 7 mps 740 mmHg 12%
    12:00 +29°C° 0 mm 7 mps 739 mmHg 10%
    13:00 +30°C° 0 mm 7 mps 739 mmHg 9%
    14:00 +30°C° 0 mm 6 mps 739 mmHg 9%
    15:00 +30°C° 0 mm 6 mps 738 mmHg 9%
    16:00 +30°C° 0 mm 5 mps 738 mmHg 9%
    17:00 +28°C° 0 mm 5 mps 738 mmHg 10%
    18:00 +27°C° 0 mm 4 mps 738 mmHg 12%
    19:00 +25°C° 0 mm 4 mps 739 mmHg 13%
    20:00 +23°C° 0 mm 4 mps 739 mmHg 15%
    21:00 +23°C° 0 mm 4 mps 739 mmHg 16%
    22:00 +22°C° 0 mm 4 mps 740 mmHg 17%
    23:00 +21°C° 0 mm 4 mps 739 mmHg 18%

    Tomorrow, 14 December, Friday

    Time Temperature Precipitation Wind Pressure Humidity
    00:00 +21°C° 0 mm 4 mps 739 mmHg 19%
    01:00 +20°C° 0 mm 4 mps 739 mmHg 20%
    02:00 +20°C° 0 mm 4 mps 738 mmHg 20%
    03:00 +20°C° 0 mm 4 mps 738 mmHg 21%
    04:00 +19°C° 0 mm 4 mps 738 mmHg 22%
    05:00 +19°C° 0 mm 4 mps 738 mmHg 22%
    06:00 +19°C° 0 mm 4 mps 739 mmHg 22%
    07:00 +19°C° 0 mm 4 mps 739 mmHg 22%
    08:00 +21°C° 0 mm 5 mps 739 mmHg 19%
    09:00 +23°C° 0 mm 5 mps 740 mmHg 16%
    10:00 +27°C° 0 mm 6 mps 740 mmHg 13%
    11:00 +29°C° 0 mm 6 mps 739 mmHg 12%
    12:00 +30°C° 0 mm 5 mps 739 mmHg 11%
    13:00 +33°C° 0 mm 5 mps 738 mmHg 9%
    14:00 +33°C° 0 mm 5 mps 738 mmHg 9%
    15:00 +33°C° 0 mm 4 mps 737 mmHg 9%
    16:00 +33°C° 0 mm 4 mps 737 mmHg 9%
    17:00 +30°C° 0 mm 4 mps 737 mmHg 10%
    18:00 +28°C° 0 mm 4 mps 737 mmHg 11%
    19:00 +27°C° 0 mm 3 mps 738 mmHg 13%
    20:00 +26°C° 0 mm 3 mps 738 mmHg 13%
    21:00 +25°C° 0 mm 3 mps 738 mmHg 14%
    22:00 +25°C° 0 mm 3 mps 739 mmHg 14%
    23:00 +24°C° 0 mm 3 mps 738 mmHg 15%

    Day after tomorrow, 15 December, Saturday

    Time Temperature Precipitation Wind Pressure Humidity
    00:00 +24°C° 0 mm 3 mps 738 mmHg 15%
    01:00 +22°C° 0 mm 3 mps 738 mmHg 15%
    02:00 +22°C° 0 mm 3 mps 738 mmHg 16%
    03:00 +21°C° 0 mm 3 mps 737 mmHg 16%
    04:00 +21°C° 0 mm 3 mps 737 mmHg 17%
    05:00 +21°C° 0 mm 3 mps 738 mmHg 17%
    06:00 +21°C° 0 mm 3 mps 738 mmHg 17%
    07:00 +21°C° 0 mm 3 mps 739 mmHg 17%
    08:00 +23°C° 0 mm 4 mps 739 mmHg 15%
    09:00 +26°C° 0 mm 4 mps 739 mmHg 13%
    10:00 +29°C° 0 mm 5 mps 740 mmHg 11%
    11:00 +30°C° 0 mm 4 mps 739 mmHg 10%
    12:00 +32°C° 0 mm 4 mps 738 mmHg 9%
    13:00 +34°C° 0 mm 4 mps 738 mmHg 8%
    14:00 +34°C° 0 mm 4 mps 737 mmHg 8%
    15:00 +34°C° 0 mm 4 mps 737 mmHg 8%
    16:00 +34°C° 0 mm 4 mps 736 mmHg 8%
    17:00 +32°C° 0 mm 4 mps 737 mmHg 9%
    18:00 +29°C° 0 mm 4 mps 737 mmHg 10%
    19:00 +27°C° 0 mm 4 mps 738 mmHg 11%
    20:00 +27°C° 0 mm 4 mps 738 mmHg 11%
    21:00 +26°C° 0 mm 4 mps 738 mmHg 12%
    22:00 +25°C° 0 mm 4 mps 738 mmHg 12%
    23:00 +25°C° 0 mm 4 mps 738 mmHg 12%

    16 December, Sunday

    Time Temperature Precipitation Wind Pressure Humidity
    00:00 +23°C° 0 mm 4 mps 738 mmHg 13%
    01:00 +22°C° 0 mm 4 mps 738 mmHg 13%
    02:00 +22°C° 0 mm 4 mps 737 mmHg 13%
    03:00 +21°C° 0 mm 4 mps 737 mmHg 13%
    04:00 +20°C° 0 mm 4 mps 737 mmHg 13%
    05:00 +20°C° 0 mm 4 mps 738 mmHg 13%
    06:00 +20°C° 0 mm 4 mps 738 mmHg 13%
    07:00 +19°C° 0 mm 4 mps 739 mmHg 13%
    08:00 +21°C° 0 mm 5 mps 739 mmHg 11%
    09:00 +23°C° 0 mm 5 mps 739 mmHg 10%
    10:00 +26°C° 0 mm 6 mps 740 mmHg 9%
    11:00 +28°C° 0 mm 5 mps 739 mmHg 8%
    12:00 +29°C° 0 mm 5 mps 739 mmHg 7%
    13:00 +30°C° 0 mm 5 mps 738 mmHg 6%
    14:00 +32°C° 0 mm 5 mps 738 mmHg 6%
    15:00 +32°C° 0 mm 5 mps 737 mmHg 7%
    16:00 +32°C° 0 mm 4 mps 737 mmHg 7%
    17:00 +29°C° 0 mm 4 mps 737 mmHg 8%
    18:00 +27°C° 0 mm 4 mps 738 mmHg 10%
    19:00 +25°C° 0 mm 4 mps 738 mmHg 11%
    20:00 +23°C° 0 mm 5 mps 739 mmHg 12%
    21:00 +22°C° 0 mm 5 mps 739 mmHg 13%
    22:00 +22°C° 0 mm 6 mps 740 mmHg 14%
    23:00 +21°C° 0 mm 6 mps 739 mmHg 16%

    17 December, Monday

    Time Temperature Precipitation Wind Pressure Humidity
    00:00 +20°C° 0 mm 6 mps 739 mmHg 17%
    01:00 +20°C° 0 mm 6 mps 739 mmHg 18%
    02:00 +19°C° 0 mm 6 mps 739 mmHg 19%
    03:00 +19°C° 0 mm 6 mps 739 mmHg 20%
    04:00 +17°C° 0 mm 7 mps 739 mmHg 21%
    05:00 +17°C° 0 mm 7 mps 739 mmHg 21%
    06:00 +17°C° 0 mm 8 mps 740 mmHg 22%
    07:00 +17°C° 0 mm 8 mps 740 mmHg 23%
    08:00 +18°C° 0 mm 9 mps 740 mmHg 20%
    09:00 +21°C° 0 mm 11 mps 741 mmHg 18%
    10:00 +23°C° 0 mm 12 mps 741 mmHg 15%
    11:00 +24°C° 0 mm 11 mps 740 mmHg 14%
    12:00 +27°C° 0 mm 11 mps 740 mmHg 13%
    13:00 +28°C° 0 mm 10 mps 739 mmHg 12%
    14:00 +28°C° 0 mm 10 mps 739 mmHg 12%
    15:00 +28°C° 0 mm 9 mps 738 mmHg 12%
    16:00 +28°C° 0 mm 9 mps 738 mmHg 12%
    17:00 +26°C° 0 mm 8 mps 738 mmHg 15%
    18:00 +23°C° 0 mm 7 mps 739 mmHg 17%
    19:00 +22°C° 0 mm 6 mps 739 mmHg 19%
    20:00 +21°C° 0 mm 6 mps 740 mmHg 21%
    21:00 +20°C° 0 mm 6 mps 740 mmHg 23%
    22:00 +19°C° 0 mm 6 mps 740 mmHg 25%
    23:00 +19°C° 0 mm 6 mps 740 mmHg 26%

    18 December, Tuesday

    Time Temperature Precipitation Wind Pressure Humidity
    00:00 +17°C° 0 mm 6 mps 740 mmHg 28%
    01:00 +17°C° 0 mm 6 mps 739 mmHg 29%
    02:00 +16°C° 0 mm 7 mps 739 mmHg 28%
    03:00 +16°C° 0 mm 7 mps 739 mmHg 27%
    04:00 +16°C° 0 mm 7 mps 739 mmHg 26%
    05:00 +15°C° 0 mm 7 mps 739 mmHg 25%
    06:00 +15°C° 0 mm 7 mps 740 mmHg 25%
    07:00 +15°C° 0 mm 7 mps 740 mmHg 24%
    08:00 +17°C° 0 mm 8 mps 740 mmHg 22%
    09:00 +19°C° 0 mm 9 mps 741 mmHg 19%
    10:00 +22°C° 0 mm 10 mps 741 mmHg 17%
    11:00 +24°C° 0 mm 10 mps 740 mmHg 16%
    12:00 +26°C° 0 mm 9 mps 739 mmHg 15%
    13:00 +27°C° 0 mm 8 mps 739 mmHg 13%
    14:00 +27°C° 0 mm 8 mps 738 mmHg 14%
    15:00 +27°C° 0 mm 8 mps 738 mmHg 14%
    16:00 +27°C° 0 mm 7 mps 738 mmHg 14%
    17:00 +24°C° 0 mm 6 mps 738 mmHg 17%
    18:00 +23°C° 0 mm 6 mps 738 mmHg 19%
    19:00 +21°C° 0 mm 5 mps 738 mmHg 21%
    20:00 +20°C° 0 mm 5 mps 739 mmHg 23%
    21:00 +20°C° 0 mm 5 mps 739 mmHg 25%
    22:00 +19°C° 0 mm 5 mps 739 mmHg 27%
    23:00 +17°C° 0 mm 5 mps 739 mmHg 29%
    Show more